Hibbing, MN

11:34 PM CDT on March 23, 2017 (GMT -0500)
Chisholm-hibbing

Weather History for KHIB - December, 2013

Change the Weather History Date:

Wednesday, December 4, 2013

  Actual Average Record
Temperature  
Mean Temperature 20 °F -  
Max Temperature 23 °F 23 °F 51 °F (1996)
Min Temperature 17 °F 6 °F -17 °F (1991)
Degree Days  
Heating Degree Days 45    
Moisture  
Dew Point 16 °F    
Average Humidity 83    
Maximum Humidity 93    
Minimum Humidity 77    
Precipitation  
Precipitation 0.01 in - - ()
Sea Level Pressure  
Sea Level Pressure 29.63 in    
Wind  
Wind Speed 9 mph (NE)    
Max Wind Speed 13 mph    
Max Gust Speed 18 mph    
Visibility 3 miles    
Events Fog , Snow    
Averages and records for this station are not official NWS values.
T = Trace of Precipitation, MM = Missing Value Source: NWS Daily Summary

Daily Weather History Graph

Daily Weather History Graph

Search for Another Location

Airport or City:

Trip Planner

Search our weather history database for the weather conditions in past years. The results will help you decide how hot, cold, wet, or windy it might be!

Date:

Astronomy

Dec. 04, 2013 Rise Set
Actual Time 7:41 AM CST 4:21 PM CST
Civil Twilight 7:06 AM CST 4:56 PM CST
Nautical Twilight 6:27 AM CST 5:35 PM CST
Astronomical Twilight 5:50 AM CST 6:12 PM CST
Moon 9:07 AM CST (12/4) 6:36 PM CST (12/4)
Length of Visible Light 9h 50m
Length of Day
8h 39m
Waxing Crescent, 4% of the Moon is Illuminated
Dec 4
Waxing Crescent
Dec 9
First Quarter
Dec 17
Full
Dec 25
Last Quarter
Jan 1
New

Hourly Weather History & Observations

Time (CST) Temp. Windchill Dew Point Humidity Pressure Visibility Wind Dir Wind Speed Gust Speed Precip Events Conditions
12:03 AM - - - N/A% 29.89 in 2.5 mi ENE 10.4 mph - 0.00 in   Unknown
12:22 AM - - - N/A% 29.89 in 3.0 mi ENE 9.2 mph - 0.00 in   Unknown
12:53 AM - - - N/A% 29.90 in 5.0 mi NE 8.1 mph - 0.00 in   Unknown
1:53 AM - - - N/A% 29.89 in 8.0 mi ENE 10.4 mph - 0.00 in   Unknown
2:53 AM - - - N/A% 29.88 in 10.0 mi ENE 9.2 mph - 0.00 in   Overcast
3:31 AM - - - N/A% 29.87 in 10.0 mi NE 8.1 mph - N/A   Overcast
3:53 AM - - - N/A% 29.86 in 10.0 mi NE 6.9 mph - N/A   Overcast
4:14 AM - - - N/A% 29.85 in 10.0 mi NE 8.1 mph - N/A   Overcast
4:53 AM - - - N/A% 29.84 in 10.0 mi NE 8.1 mph - N/A   Overcast
5:37 AM - - - N/A% 29.83 in 2.0 mi NE 8.1 mph - 0.00 in   Unknown
5:53 AM - - - N/A% 29.83 in 2.0 mi NE 6.9 mph - 0.00 in   Unknown
6:05 AM - - - N/A% 29.83 in 1.8 mi NE 9.2 mph - 0.00 in   Unknown
6:43 AM - - - N/A% 29.81 in 1.0 mi NE 9.2 mph - 0.00 in   Unknown
6:53 AM - - - N/A% 29.81 in 1.0 mi NE 9.2 mph - 0.00 in   Unknown
7:13 AM - - - N/A% 29.79 in 1.2 mi NE 9.2 mph - 0.00 in   Unknown
7:31 AM - - - N/A% 29.79 in 2.5 mi NE 8.1 mph - 0.00 in   Unknown
7:39 AM - - - N/A% 29.79 in 3.0 mi NE 10.4 mph - 0.00 in   Unknown
7:53 AM - - - N/A% 29.79 in 3.0 mi NE 8.1 mph - 0.00 in   Unknown
8:01 AM - - - N/A% 29.79 in 2.0 mi NE 9.2 mph - 0.00 in   Unknown
8:08 AM - - - N/A% 29.79 in 1.2 mi NE 10.4 mph - 0.00 in   Unknown
8:27 AM - - - N/A% 29.78 in 0.8 mi NE 8.1 mph - 0.00 in   Unknown
8:39 AM - - - N/A% 29.77 in 1.0 mi NE 10.4 mph 18.4 mph 0.00 in   Unknown
8:53 AM - - - N/A% 29.75 in 0.8 mi NE 9.2 mph 16.1 mph 0.00 in   Unknown
9:29 AM - - - N/A% 29.75 in 0.8 mi NE 9.2 mph - 0.00 in   Unknown
9:53 AM - - - N/A% 29.73 in 0.8 mi NE 10.4 mph - 0.00 in   Unknown
10:13 AM - - - N/A% 29.72 in 1.0 mi ENE 11.5 mph - 0.00 in   Unknown
10:26 AM - - - N/A% 29.72 in 0.8 mi NE 9.2 mph - 0.00 in   Unknown
10:51 AM - - - N/A% 29.71 in 0.5 mi NE 8.1 mph - 0.00 in   Unknown
10:53 AM - - - N/A% 29.71 in 0.5 mi NE 9.2 mph - 0.00 in   Unknown
11:53 AM 21.0 °F 10.6 °F 16.0 °F 81% 29.65 in 0.8 mi NE 9.2 mph - 0.01 in Snow Light Snow
12:21 PM 21.2 °F 10.1 °F 15.8 °F 80% 29.61 in 1.0 mi NE 10.4 mph 18.4 mph 0.00 in Snow Light Snow
12:31 PM 21.2 °F 10.9 °F 17.6 °F 86% 29.60 in 0.8 mi NE 9.2 mph 16.1 mph 0.00 in Snow Light Snow
12:43 PM 21.2 °F 10.1 °F 17.6 °F 86% 29.59 in 1.0 mi NE 10.4 mph 18.4 mph 0.00 in Snow Light Snow
12:53 PM 21.9 °F 10.4 °F 17.1 °F 82% 29.58 in 1.2 mi NE 11.5 mph - 0.00 in Snow Light Snow
1:14 PM 21.2 °F 10.9 °F 17.6 °F 86% 29.56 in 2.0 mi NE 9.2 mph - 0.00 in Snow Light Snow
1:21 PM 21.2 °F 10.9 °F 17.6 °F 86% 29.56 in 1.5 mi NE 9.2 mph - 0.00 in Snow Light Snow
1:36 PM 21.2 °F 10.1 °F 17.6 °F 86% 29.55 in 2.5 mi NE 10.4 mph - 0.00 in Snow Light Snow
1:44 PM 21.2 °F 10.1 °F 17.6 °F 86% 29.55 in 1.0 mi NE 10.4 mph - 0.00 in Snow Light Snow
1:53 PM 21.9 °F 11.0 °F 17.1 °F 82% 29.54 in 1.0 mi NNE 10.4 mph - 0.00 in Snow Light Snow
2:01 PM 21.2 °F 12.6 °F 17.6 °F 86% 29.55 in 0.8 mi NNE 6.9 mph - 0.00 in Snow Light Snow
2:15 PM 21.2 °F 10.9 °F 17.6 °F 86% 29.55 in 0.5 mi NNE 9.2 mph - 0.00 in Fog , Snow Snow
2:24 PM 21.2 °F 11.7 °F 17.6 °F 86% 29.55 in 0.2 mi NNE 8.1 mph - 0.00 in Fog , Snow Snow
2:41 PM 21.2 °F 10.1 °F 19.4 °F 93% 29.55 in 0.2 mi NNE 10.4 mph - 0.00 in Fog , Snow Snow
2:53 PM 23.0 °F 13.1 °F 19.0 °F 85% 29.54 in 0.2 mi NNE 9.2 mph - 0.00 in Fog , Snow Snow
3:02 PM 21.2 °F 9.5 °F 17.6 °F 86% 29.53 in 0.5 mi NNE 11.5 mph - 0.00 in Fog , Snow Snow
3:42 PM 21.2 °F 9.5 °F 17.6 °F 86% 29.52 in 1.0 mi NNE 11.5 mph - 0.00 in Snow Light Snow
3:53 PM 21.9 °F 11.0 °F 17.1 °F 82% 29.51 in 1.0 mi NNE 10.4 mph - 0.00 in Snow Light Snow
4:39 PM 21.2 °F 8.9 °F 15.8 °F 80% 29.47 in 1.0 mi NE 12.7 mph - 0.00 in Snow Light Snow
4:51 PM 21.2 °F 11.7 °F 15.8 °F 80% 29.46 in 1.5 mi NE 8.1 mph - 0.00 in Snow Light Snow
4:53 PM 21.0 °F 9.9 °F 16.0 °F 81% 29.46 in 1.5 mi NE 10.4 mph - 0.00 in Snow Light Snow
5:42 PM 21.2 °F 10.1 °F 15.8 °F 80% 29.46 in 1.0 mi NNE 10.4 mph - 0.00 in Snow Light Snow
5:50 PM 21.2 °F 10.1 °F 15.8 °F 80% 29.45 in 0.8 mi NNE 10.4 mph - 0.00 in Snow Light Snow
5:53 PM 21.0 °F 9.3 °F 16.0 °F 81% 29.45 in 0.8 mi NNE 11.5 mph - 0.00 in Snow Light Snow
6:22 PM 19.4 °F 9.5 °F 15.8 °F 86% 29.47 in 1.0 mi North 8.1 mph - 0.00 in Snow Light Snow
6:39 PM 19.4 °F 7.2 °F 15.8 °F 86% 29.42 in 1.2 mi NNE 11.5 mph - 0.00 in Snow Light Snow
6:53 PM 19.9 °F 8.6 °F 15.1 °F 81% 29.42 in 1.8 mi North 10.4 mph - 0.00 in Snow Light Snow
7:10 PM 19.4 °F 8.6 °F 15.8 °F 86% 29.41 in 3.0 mi NNE 9.2 mph - 0.00 in Snow Light Snow
7:17 PM 19.4 °F 7.9 °F 14.0 °F 80% 29.41 in 6.0 mi North 10.4 mph - 0.00 in Snow Light Snow
7:34 PM 19.4 °F 7.2 °F 14.0 °F 80% 29.43 in 9.0 mi North 11.5 mph - 0.00 in   Overcast
7:53 PM 19.9 °F 7.9 °F 14.0 °F 78% 29.44 in 10.0 mi North 11.5 mph - 0.00 in   Overcast
8:53 PM 19.0 °F 7.5 °F 12.9 °F 77% 29.41 in 8.0 mi North 10.4 mph - 0.00 in Snow Light Snow
9:53 PM 18.0 °F 5.4 °F 12.9 °F 81% 29.40 in 3.0 mi North 11.5 mph - 0.00 in Snow Light Snow
10:46 PM 17.6 °F 5.7 °F 12.2 °F 79% 29.38 in 3.0 mi North 10.4 mph - 0.00 in Snow Light Snow
10:53 PM 18.0 °F 8.7 °F 12.9 °F 81% 29.39 in 2.5 mi NNE 6.9 mph - 0.00 in Snow Light Snow
11:09 PM 17.6 °F 9.3 °F 12.2 °F 79% 29.43 in 1.8 mi West 5.8 mph - 0.00 in Snow Light Snow
11:53 PM 18.0 °F 8.7 °F 12.9 °F 81% 29.51 in 1.2 mi WNW 6.9 mph - 0.00 in Snow Light Snow